カタログに戻る

DELTA 2 R/B(1)

運用中LEO
NORAD 23640·ROCKET BODY·🇺🇸 United States

打ち上げ Aug 5, 1995 から Cape Canaveral Space Force Station

Loading…

次のパス (今後24時間)

TLE

最新Source: Space-Track

元期: Sep 14, 2026, 20:22 UTC

1 23640U 95041B   26257.84913451  .00000152  00000-0  75682-4 0  9991
2 23640  26.6735  82.4411 0289129 149.0967 212.6903 13.28198095511346

AllMySatでDELTA 2 R/B(1)をリアルタイム追跡

Download on the App Store